Time,TemperatureF,DewpointF,PressureIn,WindDirection,WindDirectionDegrees,WindSpeedMPH,WindSpeedGustMPH,Humidity,HourlyPrecipIn,Conditions,Clouds,dailyrainin,SoftwareType,DateUTC
2013-01-13 00:07:00,44.4,30.1,30.07,North,0,0.0,-999.0,57,0.00,,,0.00,open2300 v1.10,2013-01-13 08:07:00,
2013-01-13 00:21:00,44.2,29.9,30.07,North,0,0.0,-999.0,57,0.00,,,0.00,open2300 v1.10,2013-01-13 08:21:00,
2013-01-13 00:36:00,44.2,29.5,30.07,North,0,0.0,-999.0,56,0.00,,,0.00,open2300 v1.10,2013-01-13 08:36:00,
2013-01-13 00:51:00,44.2,29.5,30.07,North,0,0.0,-999.0,56,0.00,,,0.00,open2300 v1.10,2013-01-13 08:51:00,
2013-01-13 01:07:00,43.9,29.1,30.07,North,0,0.0,-999.0,56,0.00,,,0.00,open2300 v1.10,2013-01-13 09:07:00,
2013-01-13 01:21:00,43.5,28.8,30.07,North,0,0.0,-999.0,56,0.00,,,0.00,open2300 v1.10,2013-01-13 09:21:00,
2013-01-13 01:36:00,43.5,28.4,30.07,North,0,0.0,-999.0,55,0.00,,,0.00,open2300 v1.10,2013-01-13 09:36:00,
2013-01-13 01:51:00,43.7,28.5,30.07,North,0,0.0,-999.0,55,0.00,,,0.00,open2300 v1.10,2013-01-13 09:51:00,
2013-01-13 02:07:00,43.7,28.5,30.09,North,0,0.0,-999.0,55,0.00,,,0.00,open2300 v1.10,2013-01-13 10:07:00,
2013-01-13 02:21:00,43.5,28.4,30.09,North,0,0.0,-999.0,55,0.00,,,0.00,open2300 v1.10,2013-01-13 10:21:00,
2013-01-13 02:36:00,43.5,28.4,30.09,North,0,0.0,-999.0,55,0.00,,,0.00,open2300 v1.10,2013-01-13 10:36:00,
2013-01-13 02:51:00,43.3,28.2,30.09,North,0,0.0,-999.0,55,0.00,,,0.00,open2300 v1.10,2013-01-13 10:51:00,
2013-01-13 03:07:00,43.3,28.2,30.09,North,0,0.0,-999.0,55,0.00,,,0.00,open2300 v1.10,2013-01-13 11:07:00,
2013-01-13 03:21:00,43.0,27.8,30.09,North,0,0.0,-999.0,55,0.00,,,0.00,open2300 v1.10,2013-01-13 11:21:00,
2013-01-13 03:36:00,42.8,27.7,30.09,North,0,0.0,-999.0,55,0.00,,,0.00,open2300 v1.10,2013-01-13 11:36:00,
2013-01-13 03:51:00,42.6,27.1,30.09,North,0,0.0,-999.0,54,0.00,,,0.00,open2300 v1.10,2013-01-13 11:51:00,
2013-01-13 04:07:00,42.6,27.1,30.09,North,0,0.0,-999.0,54,0.00,,,0.00,open2300 v1.10,2013-01-13 12:07:00,
2013-01-13 04:21:00,42.4,26.9,30.08,North,0,0.0,-999.0,54,0.00,,,0.00,open2300 v1.10,2013-01-13 12:21:00,
2013-01-13 04:36:00,42.1,26.5,30.08,North,0,0.0,-999.0,54,0.00,,,0.00,open2300 v1.10,2013-01-13 12:36:00,
2013-01-13 04:51:00,42.1,26.5,30.09,North,0,0.0,-999.0,54,0.00,,,0.00,open2300 v1.10,2013-01-13 12:51:00,
2013-01-13 05:07:00,42.1,26.5,30.09,North,0,0.0,-999.0,54,0.00,,,0.00,open2300 v1.10,2013-01-13 13:07:00,
2013-01-13 05:21:00,41.9,25.9,30.10,North,0,0.0,-999.0,53,0.00,,,0.00,open2300 v1.10,2013-01-13 13:21:00,
2013-01-13 05:36:00,41.7,25.8,30.10,North,0,0.0,-999.0,53,0.00,,,0.00,open2300 v1.10,2013-01-13 13:36:00,
2013-01-13 05:51:00,41.7,25.8,30.10,North,0,0.0,-999.0,53,0.00,,,0.00,open2300 v1.10,2013-01-13 13:51:00,
2013-01-13 06:07:00,41.7,25.8,30.10,North,0,0.0,-999.0,53,0.00,,,0.00,open2300 v1.10,2013-01-13 14:07:00,
2013-01-13 06:21:00,41.4,25.4,30.10,North,0,0.0,-999.0,53,0.00,,,0.00,open2300 v1.10,2013-01-13 14:21:00,
2013-01-13 06:36:00,41.2,25.2,30.11,North,0,0.0,-999.0,53,0.00,,,0.00,open2300 v1.10,2013-01-13 14:36:00,
2013-01-13 06:51:00,41.2,25.2,30.11,North,0,0.0,-999.0,53,0.00,,,0.00,open2300 v1.10,2013-01-13 14:51:00,
2013-01-13 07:06:00,40.8,24.9,30.12,North,0,0.0,-999.0,53,0.00,,,0.00,open2300 v1.10,2013-01-13 15:06:00,
2013-01-13 07:21:00,40.8,24.9,30.12,North,0,0.0,-999.0,53,0.00,,,0.00,open2300 v1.10,2013-01-13 15:21:00,
2013-01-13 07:36:00,40.8,24.9,30.12,North,0,0.0,-999.0,53,0.00,,,0.00,open2300 v1.10,2013-01-13 15:36:00,
2013-01-13 07:51:00,40.6,24.3,30.12,North,0,0.0,-999.0,52,0.00,,,0.00,open2300 v1.10,2013-01-13 15:51:00,
2013-01-13 08:06:00,40.8,24.9,30.12,North,0,0.0,-999.0,53,0.00,,,0.00,open2300 v1.10,2013-01-13 16:06:00,
2013-01-13 08:21:00,41.0,25.1,30.13,North,0,0.0,-999.0,53,0.00,,,0.00,open2300 v1.10,2013-01-13 16:21:00,
2013-01-13 08:36:00,41.2,25.2,30.15,North,0,0.0,-999.0,53,0.00,,,0.00,open2300 v1.10,2013-01-13 16:36:00,
2013-01-13 08:51:00,41.0,26.0,30.14,North,0,0.0,-999.0,55,0.00,,,0.00,open2300 v1.10,2013-01-13 16:51:00,
2013-01-13 09:06:00,40.8,26.2,30.14,North,0,0.0,-999.0,56,0.00,,,0.00,open2300 v1.10,2013-01-13 17:06:00,
2013-01-13 09:21:00,41.4,26.7,30.14,North,0,0.0,-999.0,56,0.00,,,0.00,open2300 v1.10,2013-01-13 17:21:00,
2013-01-13 09:36:00,41.7,27.5,30.15,North,0,0.0,-999.0,57,0.00,,,0.00,open2300 v1.10,2013-01-13 17:36:00,
2013-01-13 09:51:00,42.4,28.2,30.14,North,0,0.0,-999.0,57,0.00,,,0.00,open2300 v1.10,2013-01-13 17:51:00,
2013-01-13 10:06:00,43.2,28.5,30.14,North,0,0.0,-999.0,56,0.00,,,0.00,open2300 v1.10,2013-01-13 18:06:00,
2013-01-13 10:21:00,43.9,28.7,30.14,North,0,0.0,-999.0,55,0.00,,,0.00,open2300 v1.10,2013-01-13 18:21:00,
2013-01-13 10:36:00,44.4,29.2,30.13,North,0,0.0,-999.0,55,0.00,,,0.00,open2300 v1.10,2013-01-13 18:36:00,
2013-01-13 10:51:00,44.8,29.5,30.13,North,0,0.0,-999.0,55,0.00,,,0.00,open2300 v1.10,2013-01-13 18:51:00,
2013-01-13 11:06:00,45.1,29.9,30.13,North,0,0.0,-999.0,55,0.00,,,0.00,open2300 v1.10,2013-01-13 19:06:00,
2013-01-13 11:21:00,45.3,30.0,30.13,North,0,0.0,-999.0,55,0.00,,,0.00,open2300 v1.10,2013-01-13 19:21:00,
2013-01-13 11:36:00,45.7,29.9,30.12,North,0,0.0,-999.0,54,0.00,,,0.00,open2300 v1.10,2013-01-13 19:36:00,
2013-01-13 11:51:00,45.9,30.1,30.12,North,0,0.0,-999.0,54,0.00,,,0.00,open2300 v1.10,2013-01-13 19:51:00,
2013-01-13 12:06:00,46.0,29.8,30.10,North,0,0.0,-999.0,53,0.00,,,0.00,open2300 v1.10,2013-01-13 20:06:00,
2013-01-13 12:21:00,46.6,30.3,30.10,North,0,0.0,-999.0,53,0.00,,,0.00,open2300 v1.10,2013-01-13 20:21:00,
2013-01-13 12:36:00,46.6,29.8,30.09,North,0,0.0,-999.0,52,0.00,,,0.00,open2300 v1.10,2013-01-13 20:36:00,
2013-01-13 12:51:00,47.1,30.8,30.08,North,0,0.0,-999.0,53,0.00,,,0.00,open2300 v1.10,2013-01-13 20:51:00,
2013-01-13 13:06:00,48.0,31.1,30.07,North,0,0.0,-999.0,52,0.00,,,0.00,open2300 v1.10,2013-01-13 21:06:00,
2013-01-13 13:21:00,48.4,31.5,30.07,North,0,0.0,-999.0,52,0.00,,,0.00,open2300 v1.10,2013-01-13 21:21:00,
2013-01-13 13:36:00,48.4,31.0,30.07,North,0,0.0,-999.0,51,0.00,,,0.00,open2300 v1.10,2013-01-13 21:36:00,
2013-01-13 13:51:00,48.0,30.7,30.07,North,0,0.0,-999.0,51,0.00,,,0.00,open2300 v1.10,2013-01-13 21:51:00,
2013-01-13 14:06:00,48.2,30.9,30.07,North,0,0.0,-999.0,51,0.00,,,0.00,open2300 v1.10,2013-01-13 22:06:00,
2013-01-13 14:21:00,47.8,30.1,30.07,North,0,0.0,-999.0,50,0.00,,,0.00,open2300 v1.10,2013-01-13 22:21:00,
2013-01-13 14:36:00,47.5,29.7,30.07,North,0,0.0,-999.0,50,0.00,,,0.00,open2300 v1.10,2013-01-13 22:36:00,
2013-01-13 14:51:00,47.5,29.2,30.06,North,0,0.0,-999.0,49,0.00,,,0.00,open2300 v1.10,2013-01-13 22:51:00,
2013-01-13 15:06:00,47.5,29.2,30.06,North,0,0.0,-999.0,49,0.00,,,0.00,open2300 v1.10,2013-01-13 23:06:00,
2013-01-13 15:21:00,48.0,29.7,30.06,North,0,0.0,-999.0,49,0.00,,,0.00,open2300 v1.10,2013-01-13 23:21:00,
2013-01-13 15:36:00,48.0,29.7,30.06,North,0,0.0,-999.0,49,0.00,,,0.00,open2300 v1.10,2013-01-13 23:36:00,
2013-01-13 15:51:00,48.4,30.0,30.06,North,0,0.0,-999.0,49,0.00,,,0.00,open2300 v1.10,2013-01-13 23:51:00,
2013-01-13 16:06:00,48.7,30.4,30.06,North,0,0.0,-999.0,49,0.00,,,0.00,open2300 v1.10,2013-01-14 00:06:00,
2013-01-13 16:21:00,48.9,30.0,30.05,North,0,0.0,-999.0,48,0.00,,,0.00,open2300 v1.10,2013-01-14 00:21:00,
2013-01-13 16:36:00,48.9,30.0,30.05,North,0,0.0,-999.0,48,0.00,,,0.00,open2300 v1.10,2013-01-14 00:36:00,
2013-01-13 16:51:00,49.1,30.2,30.05,North,0,0.0,-999.0,48,0.00,,,0.00,open2300 v1.10,2013-01-14 00:51:00,
2013-01-13 17:06:00,49.3,29.8,30.05,North,0,0.0,-999.0,47,0.00,,,0.00,open2300 v1.10,2013-01-14 01:06:00,
2013-01-13 17:21:00,48.7,29.8,30.05,North,0,0.0,-999.0,48,0.00,,,0.00,open2300 v1.10,2013-01-14 01:21:00,
2013-01-13 17:36:00,48.4,30.6,30.06,North,0,0.0,-999.0,50,0.00,,,0.00,open2300 v1.10,2013-01-14 01:36:00,
2013-01-13 17:51:00,47.7,30.3,30.06,North,0,0.0,-999.0,51,0.00,,,0.00,open2300 v1.10,2013-01-14 01:51:00,
2013-01-13 18:06:00,47.5,31.1,30.06,North,0,0.0,-999.0,53,0.00,,,0.00,open2300 v1.10,2013-01-14 02:06:00,
2013-01-13 18:21:00,46.9,30.6,30.06,North,0,0.0,-999.0,53,0.00,,,0.00,open2300 v1.10,2013-01-14 02:21:00,
2013-01-13 18:36:00,46.6,30.7,30.06,North,0,0.0,-999.0,54,0.00,,,0.00,open2300 v1.10,2013-01-14 02:36:00,
2013-01-13 18:51:00,46.6,31.2,30.06,North,0,0.0,-999.0,55,0.00,,,0.00,open2300 v1.10,2013-01-14 02:51:00,
2013-01-13 19:06:00,46.2,31.3,30.06,North,0,0.0,-999.0,56,0.00,,,0.00,open2300 v1.10,2013-01-14 03:06:00,
2013-01-13 19:21:00,46.2,31.3,30.07,North,0,0.0,-999.0,56,0.00,,,0.00,open2300 v1.10,2013-01-14 03:21:00,
2013-01-13 19:36:00,46.2,31.3,30.07,North,0,0.0,-999.0,56,0.00,,,0.00,open2300 v1.10,2013-01-14 03:36:00,
2013-01-13 19:51:00,45.9,31.0,30.07,North,0,0.0,-999.0,56,0.00,,,0.00,open2300 v1.10,2013-01-14 03:51:00,
2013-01-13 20:06:00,45.7,31.3,30.07,North,0,0.0,-999.0,57,0.00,,,0.00,open2300 v1.10,2013-01-14 04:06:00,
2013-01-13 20:21:00,45.5,31.5,30.07,North,0,0.0,-999.0,58,0.00,,,0.00,open2300 v1.10,2013-01-14 04:21:00,
2013-01-13 20:36:00,45.5,31.5,30.07,North,0,0.0,-999.0,58,0.00,,,0.00,open2300 v1.10,2013-01-14 04:36:00,
2013-01-13 20:51:00,45.5,31.1,30.07,North,0,0.0,-999.0,57,0.00,,,0.00,open2300 v1.10,2013-01-14 04:51:00,
2013-01-13 21:06:00,45.5,30.6,30.07,North,0,0.0,-999.0,56,0.00,,,0.00,open2300 v1.10,2013-01-14 05:06:00,
2013-01-13 21:21:00,45.5,30.2,30.07,North,0,0.0,-999.0,55,0.00,,,0.00,open2300 v1.10,2013-01-14 05:21:00,
2013-01-13 21:36:00,45.3,29.1,30.07,North,0,0.0,-999.0,53,0.00,,,0.00,open2300 v1.10,2013-01-14 05:36:00,
2013-01-13 21:51:00,45.3,27.8,30.07,North,0,0.0,-999.0,50,0.00,,,0.00,open2300 v1.10,2013-01-14 05:51:00,
2013-01-13 22:06:00,45.3,27.2,30.08,North,0,0.0,-999.0,49,0.00,,,0.00,open2300 v1.10,2013-01-14 06:06:00,
2013-01-13 22:21:00,45.3,27.2,30.08,North,0,0.0,-999.0,49,0.00,,,0.00,open2300 v1.10,2013-01-14 06:21:00,
2013-01-13 22:36:00,45.3,25.6,30.08,North,0,0.0,-999.0,46,0.00,,,0.00,open2300 v1.10,2013-01-14 06:36:00,
2013-01-13 22:51:00,45.3,24.0,30.08,North,0,0.0,-999.0,43,0.00,,,0.00,open2300 v1.10,2013-01-14 06:51:00,
2013-01-13 23:06:00,45.5,22.5,30.09,North,0,0.0,-999.0,40,0.00,,,0.00,open2300 v1.10,2013-01-14 07:06:00,
2013-01-13 23:21:00,45.3,22.9,30.09,North,0,0.0,-999.0,41,0.00,,,0.00,open2300 v1.10,2013-01-14 07:21:00,
2013-01-13 23:36:00,45.1,22.2,30.10,North,0,0.0,-999.0,40,0.00,,,0.00,open2300 v1.10,2013-01-14 07:36:00,
2013-01-13 23:51:00,45.0,22.1,30.10,North,0,0.0,-999.0,40,0.00,,,0.00,open2300 v1.10,2013-01-14 07:51:00,